| time (UTC) | temp F | wind direction | speed MPH | gust MPH | rain 1hr in | rain 24hr in | rain mn in | humidity % | barometer mb |
| 20260503043006 | 77 | 106 | 0.0 | 1.0 | 0.00 | 0.00 | 0.00 | 90 | 1016.8 |
| 20260503041506 | 77 | 106 | 0.0 | 2.0 | 0.00 | 0.00 | 0.00 | 90 | 1016.9 |
| 20260503040011 | 77 | 106 | 0.0 | 0.0 | 0.00 | 0.00 | 0.00 | 90 | 1016.7 |
| 20260503034503 | 77 | 106 | 0.0 | 0.0 | 0.00 | 0.00 | 0.00 | 90 | 1016.6 |
| 20260503033003 | 77 | 106 | 0.0 | 0.0 | 0.00 | 0.00 | 0.00 | 90 | 1016.7 |
| 20260503031502 | 77 | 106 | 0.0 | 0.0 | 0.00 | 0.00 | 0.00 | 89 | 1016.7 |
| 20260503030001 | 77 | 84 | 0.0 | 0.0 | 0.00 | 0.00 | 0.00 | 89 | 1016.5 |
| 20260503024603 | 78 | 37 | 0.0 | 0.0 | 0.00 | 0.00 | 0.00 | 89 | 1016.5 |
| 20260503023101 | 78 | 86 | 0.0 | 0.0 | 0.00 | 0.00 | 0.00 | 89 | 1016.7 |
| 20260503021558 | 78 | 55 | 0.0 | 0.0 | 0.00 | 0.00 | 0.00 | 88 | 1016.5 |
| 20260503020113 | 78 | 50 | 0.0 | 0.0 | 0.00 | 0.00 | 0.00 | 88 | 1016.3 |
| 20260503014610 | 78 | 96 | 0.0 | 0.0 | 0.00 | 0.00 | 0.00 | 88 | 1016.1 |
| 20260503013115 | 78 | 60 | 0.0 | 0.0 | 0.00 | 0.00 | 0.00 | 88 | 1015.8 |
| 20260503011556 | 78 | 82 | 0.0 | 0.0 | 0.00 | 0.00 | 0.00 | 88 | 1015.7 |
| 20260503010055 | 78 | 107 | 0.0 | 0.0 | 0.00 | 0.00 | 0.00 | 88 | 1015.5 |
| 20260503004603 | 78 | 100 | 0.0 | 0.0 | 0.00 | 0.00 | 0.00 | 88 | 1015.1 |
| 20260503003054 | 79 | 110 | 0.0 | 0.0 | 0.00 | 0.00 | 0.00 | 88 | 1014.8 |
| 20260503001556 | 79 | 91 | 0.0 | 5.0 | 0.00 | 0.00 | 0.00 | 88 | 1014.6 |
| 20260502234603 | 79 | 139 | 1.0 | 8.0 | 0.00 | 0.00 | 0.00 | 88 | 1014.2 |
| 20260502233052 | 79 | 84 | 1.0 | 8.0 | 0.00 | 0.00 | 0.00 | 87 | 1014.1 |
| 20260502231552 | 80 | 153 | 3.0 | 8.0 | 0.00 | 0.00 | 0.00 | 87 | 1014.0 |
| 20260502230052 | 80 | 55 | 1.0 | 10.0 | 0.00 | 0.00 | 0.00 | 86 | 1013.6 |
| 20260502224550 | 81 | 98 | 4.0 | 11.0 | 0.00 | 0.00 | 0.00 | 86 | 1013.5 |
| 20260502223100 | 81 | 168 | 4.0 | 10.0 | 0.00 | 0.00 | 0.00 | 86 | 1013.6 |
| 20260502221549 | 81 | 65 | 3.0 | 12.0 | 0.00 | 0.00 | 0.00 | 85 | 1013.3 |
| 20260502220056 | 83 | 91 | 4.0 | 11.0 | 0.00 | 0.00 | 0.00 | 82 | 1013.3 |
| 20260502214609 | 84 | 117 | 4.0 | 12.0 | 0.00 | 0.00 | 0.00 | 81 | 1013.1 |
| 20260502213105 | 84 | 130 | 6.0 | 16.0 | 0.00 | 0.00 | 0.00 | 78 | 1012.9 |
| 20260502211552 | 84 | 133 | 6.0 | 12.0 | 0.00 | 0.00 | 0.00 | 79 | 1013.0 |
| 20260502210048 | 84 | 102 | 3.0 | 12.0 | 0.00 | 0.00 | 0.00 | 80 | 1012.9 |
| 20260502204545 | 85 | 77 | 6.0 | 13.0 | 0.00 | 0.00 | 0.00 | 80 | 1012.9 |
| 20260502203106 | 84 | 136 | 9.0 | 16.0 | 0.00 | 0.00 | 0.00 | 78 | 1012.9 |
| 20260502201543 | 84 | 138 | 10.0 | 16.0 | 0.00 | 0.00 | 0.00 | 79 | 1013.1 |
| 20260502200045 | 84 | 139 | 9.0 | 12.0 | 0.00 | 0.00 | 0.00 | 80 | 1013.0 |
| 20260502194537 | 83 | 86 | 0.0 | 9.0 | 0.00 | 0.00 | 0.00 | 84 | 1013.1 |
| 20260502193035 | 83 | 56 | 5.0 | 11.0 | 0.00 | 0.00 | 0.00 | 83 | 1013.3 |
| 20260502191541 | 83 | 75 | 7.0 | 12.0 | 0.00 | 0.00 | 0.00 | 83 | 1013.5 |
| 20260502190034 | 82 | 79 | 4.0 | 15.0 | 0.00 | 0.00 | 0.00 | 84 | 1013.8 |
| 20260502184532 | 83 | 80 | 5.0 | 13.0 | 0.00 | 0.00 | 0.00 | 84 | 1014.0 |
| 20260502183032 | 83 | 75 | 3.0 | 10.0 | 0.00 | 0.00 | 0.00 | 84 | 1013.9 |
| 20260502181532 | 83 | 52 | 5.0 | 14.0 | 0.00 | 0.00 | 0.00 | 84 | 1014.1 |
| 20260502163039 | 83 | 69 | 2.0 | 15.0 | 0.00 | 0.00 | 0.00 | 84 | 1015.1 |
| 20260502161535 | 83 | 84 | 8.0 | 16.0 | 0.00 | 0.00 | 0.00 | 82 | 1015.3 |
| 20260502151518 | 83 | 56 | 4.0 | 13.0 | 0.00 | 0.00 | 0.00 | 83 | 1015.4 |
| 20260502123117 | 80 | 121 | 3.0 | 10.0 | 0.00 | 0.00 | 0.00 | 86 | 1015.9 |
| 20260502121559 | 79 | 51 | 1.0 | 10.0 | 0.00 | 0.00 | 0.00 | 87 | 1015.6 |
| 20260502120111 | 79 | 61 | 2.0 | 7.0 | 0.00 | 0.00 | 0.00 | 88 | 1015.6 |
| 20260502114554 | 78 | 63 | 3.0 | 10.0 | 0.00 | 0.00 | 0.00 | 87 | 1015.5 |
| 20260502113053 | 78 | 41 | 1.0 | 7.0 | 0.00 | 0.00 | 0.00 | 88 | 1015.4 |
| 20260502111548 | 78 | 90 | 0.0 | 5.0 | 0.00 | 0.00 | 0.00 | 88 | 1015.1 |
| 20260502110047 | 76 | 71 | 0.0 | 3.0 | 0.00 | 0.00 | 0.00 | 89 | 1015.0 |
| 20260502104545 | 75 | 120 | 0.0 | 3.0 | 0.00 | 0.00 | 0.00 | 90 | 1014.9 |
| 20260502103044 | 75 | 120 | 0.0 | 0.0 | 0.00 | 0.00 | 0.00 | 90 | 1014.9 |
| 20260502101543 | 75 | 121 | 0.0 | 0.0 | 0.00 | 0.00 | 0.00 | 90 | 1014.8 |
| 20260502071532 | 75 | 121 | 0.0 | 0.0 | 0.00 | 0.00 | 0.00 | 88 | 1013.6 |
| 20260502070033 | 76 | 86 | 0.0 | 0.0 | 0.00 | 0.00 | 0.00 | 88 | 1013.8 |
| 20260502064530 | 76 | 87 | 0.0 | 0.0 | 0.00 | 0.00 | 0.00 | 88 | 1013.6 |
| 20260502063030 | 76 | 129 | 0.0 | 2.0 | 0.00 | 0.00 | 0.00 | 88 | 1013.7 |
| 20260502061528 | 76 | 128 | 0.0 | 0.0 | 0.00 | 0.00 | 0.00 | 88 | 1013.7 |
| 20260502060030 | 76 | 92 | 0.0 | 0.0 | 0.00 | 0.00 | 0.00 | 88 | 1014.0 |
| 20260502054533 | 76 | 37 | 0.0 | 0.0 | 0.00 | 0.00 | 0.00 | 88 | 1014.0 |
| 20260502053025 | 76 | 73 | 0.0 | 4.0 | 0.00 | 0.00 | 0.00 | 88 | 1014.2 |
| 20260502051529 | 76 | 129 | 0.0 | 4.0 | 0.00 | 0.00 | 0.00 | 88 | 1014.4 |
| 20260502050022 | 76 | 134 | 0.0 | 0.0 | 0.00 | 0.00 | 0.00 | 88 | 1014.6 |
| 20260502044521 | 76 | 103 | 0.0 | 0.0 | 0.00 | 0.00 | 0.00 | 88 | 1014.7 |